Location: Tamazert
(32.6352°N, 5.2072°W)
Time: 01:38:37
(UTC+00:00)

deb Explorer IX - Visible Passes

Search period start: 06 December 2023 00:00
Search period end: 16 December 2023 00:00
Orbit: 524 x 934 km, 38.8° (Epoch: 05 December)

Date Brightness Start Highest point End Pass type
(mag) Time Alt. Az. Time Alt. Az. Time Alt. Az.
06 Dec ? 19:37:36 10° SW 19:38:47 18° SSW 19:38:47 18° SSW visible
07 Dec ? 18:46:15 10° SSW 18:49:38 27° SE 18:49:47 26° SE visible
08 Dec ? 17:55:12 10° S 17:57:53 17° SE 18:00:32 10° ESE visible
08 Dec ? 19:38:11 10° WSW 19:40:04 27° WSW 19:40:04 27° WSW visible
09 Dec ? 18:46:19 10° SW 18:50:17 60° SSE 18:50:55 52° ESE visible
10 Dec ? 17:54:32 10° SW 17:58:24 39° SSE 18:01:41 13° E visible
10 Dec ? 19:39:05 10° W 19:41:01 26° W 19:41:01 26° W visible
11 Dec ? 18:46:53 10° WSW 18:50:55 68° NNW 18:51:43 52° NE visible
12 Dec ? 17:54:41 10° WSW 17:58:52 85° SSE 18:02:20 13° ENE visible
12 Dec ? 19:40:01 10° WNW 19:41:40 21° WNW 19:41:40 21° WNW visible
13 Dec ? 18:47:37 10° W 18:51:31 42° NNW 18:52:14 38° NNE visible
14 Dec ? 17:55:09 10° W 17:59:18 54° NNW 18:02:45 13° ENE visible
14 Dec ? 19:40:43 10° WNW 19:42:04 18° NW 19:42:04 18° NW visible
15 Dec ? 18:48:15 10° WNW 18:52:02 34° N 18:52:32 33° NNE visible
